Location: ??????
(38.1303°N, 24.0039°E)
Time: 17:45:18
(UTC+00:00)

Cosmos 1500 Rocket - Pass Details

Date: 20 June 2021
Orbit: 604 x 630 km, 82.5° (Epoch: 27 July)

Event Time Altitude Azimuth Distance (km) Brightness Sun altitude
Exits shadow 02:23:58 - 208° (SSW) 2,291 5.9 -6.9°
Reaches altitude 10° 02:24:51 10° 212° (SSW) 1,956 5.5 -6.7°
Maximum altitude 02:28:54 39° 281° (WNW) 920 4.2 -6.1°
Drops below altitude 10° 02:32:58 10° 351° (N) 1,960 6.5 -5.4°
Sets 02:35:19 0° 359° (N) 2,866 7.5 -5.1°
